Weather History for Phoenix-Mesa Gateway Airport, AZ

Change the Weather History Date:

Friday, March 15, 2013

  Actual Average Record
Temperature  
Mean Temperature 71 °F -  
Max Temperature 87 °F 75 °F 91 °F (2007)
Min Temperature 55 °F 48 °F 37 °F (2002)
Cooling Degree Days 6    
Growing Degree Days 21 (Base 50)    
Moisture  
Dew Point 41 °F    
Average Humidity 44    
Maximum Humidity 67    
Minimum Humidity 12    
Precipitation  
Precipitation 0.00 in - - ()
Sea Level Pressure  
Sea Level Pressure 29.96 in    
Wind  
Wind Speed 7 mph (ESE)    
Max Wind Speed 10 mph    
Max Gust Speed -    
Visibility 12 miles    
Events      
Averages and records for this station are not official NWS values.
T = Trace of Precipitation, MM = Missing Value Source: NWS Daily Summary

Daily Weather History Graph

Daily Weather History Graph

Search for Another Location

Airport:

Trip Planner

Search our weather history database for the weather conditions in past years. The results will help you decide how hot, cold, wet, or windy it might be!

Date:

Astronomy

Mar. 15, 2013 Rise Set
Actual Time 6:36 AM MST 6:34 PM MST
Civil Twilight 6:11 AM MST 6:59 PM MST
Nautical Twilight 5:43 AM MST 7:28 PM MST
Astronomical Twilight 5:14 AM MST 7:57 PM MST
Moon 8:42 AM MST (3/15) 10:37 PM MST (3/15)
Length of Visible Light 12h 47m
Length of Day
11h 58m
Waxing Crescent, 16% of the Moon is Illuminated
Mar 15
Waxing Crescent
Mar 19
First Quarter
Mar 27
Full
Apr 2
Last Quarter
Apr 10
New

Hourly Weather History & Observations

Time (MST) Temp. Dew Point Humidity Pressure Visibility Wind Dir Wind Speed Gust Speed Precip Events Conditions
12:15 AM 62.6 °F 44.6 °F 52% 30.02 in 10.0 mi ESE 9.2 mph - N/A   Clear
12:35 AM 60.8 °F 44.6 °F 55% 30.02 in 10.0 mi ESE 6.9 mph - N/A   Clear
12:55 AM 60.8 °F 44.6 °F 55% 30.02 in 10.0 mi East 6.9 mph - N/A   Clear
1:15 AM 59.0 °F 44.6 °F 59% 30.02 in 10.0 mi East 6.9 mph - N/A   Clear
1:35 AM 60.8 °F 44.6 °F 55% 30.02 in 10.0 mi East 8.1 mph - N/A   Clear
1:55 AM 59.0 °F 44.6 °F 59% 30.01 in 10.0 mi East 6.9 mph - N/A   Clear
2:15 AM 57.2 °F 46.4 °F 67% 30.01 in 10.0 mi ESE 5.8 mph - N/A   Clear
2:35 AM 57.2 °F 44.6 °F 63% 30.01 in 10.0 mi ESE 6.9 mph - N/A   Clear
2:55 AM 57.2 °F 44.6 °F 63% 30.00 in 10.0 mi ESE 6.9 mph - N/A   Clear
3:15 AM 57.2 °F 42.8 °F 59% 30.00 in 10.0 mi ESE 6.9 mph - N/A   Clear
3:35 AM 57.2 °F 44.6 °F 63% 30.00 in 10.0 mi ESE 6.9 mph - N/A   Clear
3:55 AM 57.2 °F 41.0 °F 55% 30.00 in 10.0 mi East 10.4 mph - N/A   Clear
4:15 AM 59.0 °F 41.0 °F 51% 30.00 in 10.0 mi East 10.4 mph - N/A   Clear
4:35 AM 57.2 °F 39.2 °F 51% 30.00 in 10.0 mi East 8.1 mph - N/A   Clear
4:55 AM 57.2 °F 41.0 °F 55% 30.00 in 10.0 mi East 8.1 mph - N/A   Clear
5:15 AM 55.4 °F 41.0 °F 58% 30.01 in 10.0 mi ESE 5.8 mph - N/A   Clear
5:47 AM 55.4 °F 42.8 °F 63% 30.00 in 20.0 mi ESE 6.9 mph - N/A   Partly Cloudy
6:47 AM 55.4 °F 39.2 °F 54% 30.01 in 20.0 mi SE 6.9 mph - N/A   Scattered Clouds
7:47 AM 57.2 °F 39.2 °F 51% 30.02 in 45.0 mi ESE 8.1 mph - N/A   Scattered Clouds
8:47 AM 66.2 °F 35.6 °F 32% 30.03 in 45.0 mi East 6.9 mph - N/A   Scattered Clouds
9:47 AM 73.4 °F 35.6 °F 25% 30.03 in 45.0 mi Variable 4.6 mph - N/A   Scattered Clouds
10:47 AM 75.2 °F 37.4 °F 25% 30.03 in 45.0 mi Calm Calm - N/A   Scattered Clouds
11:47 AM 80.6 °F 37.4 °F 21% 30.02 in 30.0 mi Calm Calm - N/A   Scattered Clouds
12:47 PM 84.2 °F 35.6 °F 18% 30.00 in 30.0 mi Calm Calm - N/A   Scattered Clouds
1:47 PM 86.0 °F 32.0 °F 14% 29.96 in 30.0 mi Calm Calm - N/A   Mostly Cloudy
2:47 PM 87.8 °F 30.2 °F 13% 29.94 in 30.0 mi West 4.6 mph - N/A   Mostly Cloudy
3:47 PM 87.8 °F 30.2 °F 13% 29.92 in 30.0 mi WNW 4.6 mph - N/A   Mostly Cloudy
4:47 PM 86.0 °F 28.4 °F 12% 29.90 in 30.0 mi NW 5.8 mph - N/A   Mostly Cloudy
5:47 PM 84.2 °F 32.0 °F 15% 29.89 in 30.0 mi WNW 4.6 mph - N/A   Mostly Cloudy
6:47 PM 80.6 °F 35.6 °F 20% 29.89 in 20.0 mi NW 3.5 mph - N/A   Mostly Cloudy
7:47 PM 78.8 °F 35.6 °F 21% 29.90 in 20.0 mi Calm Calm - N/A   Scattered Clouds
7:55 PM 73.4 °F 35.6 °F 25% 29.90 in 10.0 mi North 3.5 mph - N/A   Clear
8:15 PM 71.6 °F 41.0 °F 33% 29.90 in 10.0 mi East 4.6 mph - N/A   Clear
8:35 PM 69.8 °F 42.8 °F 38% 29.90 in 10.0 mi East 6.9 mph - N/A   Clear
8:49 PM 68.0 °F 42.8 °F 40% 29.90 in 20.0 mi East 4.6 mph - N/A   Scattered Clouds
8:55 PM 66.2 °F 42.8 °F 43% 29.90 in 10.0 mi East 6.9 mph - N/A   Clear
9:15 PM 66.2 °F 42.8 °F 43% 29.89 in 10.0 mi ESE 5.8 mph - N/A   Clear
9:35 PM 64.4 °F 44.6 °F 49% 29.90 in 10.0 mi SE 6.9 mph - N/A   Clear
9:55 PM 62.6 °F 44.6 °F 52% 29.90 in 10.0 mi SE 6.9 mph - N/A   Clear
10:15 PM 62.6 °F 42.8 °F 48% 29.90 in 10.0 mi SE 6.9 mph - N/A   Clear
10:35 PM 62.6 °F 44.6 °F 52% 29.90 in 10.0 mi SE 6.9 mph - N/A   Clear
10:55 PM 60.8 °F 46.4 °F 59% 29.90 in 10.0 mi SE 6.9 mph - N/A   Clear
11:15 PM 60.8 °F 46.4 °F 59% 29.90 in 10.0 mi SE 6.9 mph - N/A   Clear
11:35 PM 60.8 °F 46.4 °F 59% 29.89 in 10.0 mi ESE 8.1 mph - N/A   Clear
11:55 PM 60.8 °F 42.8 °F 52% 29.89 in 10.0 mi ESE 10.4 mph - N/A   Clear